TimeCST,TemperatureF,Dew PointF,Humidity,Sea Level PressureIn,VisibilityMPH,Wind Direction,Wind SpeedMPH,Gust SpeedMPH,PrecipitationIn,Events,Conditions,WindDirDegrees,DateUTC
12:15 AM,21.7,13.6,71,29.79,10.0,SW,21.9,-,N/A,,Overcast,220,2013-01-16 06:15:00
12:35 AM,21.7,13.6,71,29.77,10.0,SSW,23.0,27.6,N/A,,Overcast,210,2013-01-16 06:35:00
12:55 AM,21.2,13.5,72,29.76,10.0,SSW,19.6,-,N/A,,Overcast,200,2013-01-16 06:55:00
1:15 AM,21.4,14.0,73,29.76,10.0,SSW,20.7,25.3,N/A,,Mostly Cloudy,210,2013-01-16 07:15:00
1:35 AM,23.2,15.4,72,29.75,10.0,SW,20.7,-,N/A,,Overcast,220,2013-01-16 07:35:00
1:55 AM,23.0,17.1,78,29.75,7.0,SSW,20.7,26.5,N/A,,Overcast,210,2013-01-16 07:55:00
2:35 AM,23.5,20.3,87,29.74,10.0,SW,16.1,-,N/A,,Overcast,220,2013-01-16 08:35:00
2:55 AM,25.5,21.6,85,29.74,10.0,WSW,19.6,23.0,N/A,,Overcast,240,2013-01-16 08:55:00
3:15 AM,25.7,21.9,86,29.74,10.0,SW,18.4,-,N/A,,Overcast,230,2013-01-16 09:15:00
3:35 AM,26.2,22.8,87,29.73,10.0,SW,16.1,-,N/A,,Overcast,230,2013-01-16 09:35:00
3:55 AM,27.0,24.4,90,29.73,10.0,WSW,17.3,23.0,N/A,,Overcast,240,2013-01-16 09:55:00
4:14 AM,28.2,25.9,91,29.74,10.0,West,13.8,-,N/A,,Overcast,260,2013-01-16 10:14:00
4:36 AM,28.4,26.6,93,29.73,10.0,WSW,16.1,21.9,N/A,,Overcast,240,2013-01-16 10:36:00
4:55 AM,28.6,27.1,94,29.73,10.0,WSW,15.0,-,N/A,,Overcast,250,2013-01-16 10:55:00
5:35 AM,29.7,28.8,96,29.71,10.0,WSW,16.1,20.7,N/A,,Overcast,250,2013-01-16 11:35:00
5:55 AM,30.2,29.3,96,29.72,10.0,WSW,12.7,-,N/A,,Mostly Cloudy,250,2013-01-16 11:55:00
6:15 AM,30.0,29.3,97,29.73,10.0,West,11.5,-,N/A,,Scattered Clouds,260,2013-01-16 12:15:00
6:35 AM,29.3,28.9,99,29.74,10.0,West,11.5,16.1,N/A,,Clear,260,2013-01-16 12:35:00
6:55 AM,30.2,29.5,97,29.75,10.0,West,15.0,-,N/A,,Mostly Cloudy,280,2013-01-16 12:55:00
7:15 AM,30.9,29.8,96,29.75,10.0,West,16.1,-,N/A,,Mostly Cloudy,270,2013-01-16 13:15:00
7:35 AM,30.4,29.3,96,29.75,10.0,West,10.4,-,N/A,,Scattered Clouds,270,2013-01-16 13:35:00
7:54 AM,30.7,29.3,94,29.75,10.0,West,13.8,-,N/A,,Clear,260,2013-01-16 13:54:00
8:15 AM,30.6,29.1,94,29.77,10.0,West,11.5,-,N/A,,Clear,260,2013-01-16 14:15:00
8:35 AM,30.7,29.3,94,29.79,10.0,West,12.7,18.4,N/A,,Clear,270,2013-01-16 14:35:00
8:55 AM,31.5,29.8,94,29.79,10.0,West,11.5,-,N/A,,Mostly Cloudy,260,2013-01-16 14:55:00
9:15 AM,32.0,30.2,93,29.81,10.0,West,10.4,-,N/A,,Overcast,260,2013-01-16 15:15:00
9:35 AM,32.2,30.9,95,29.81,10.0,West,11.5,-,N/A,,Overcast,260,2013-01-16 15:35:00
9:55 AM,33.3,30.9,91,29.80,10.0,West,12.7,-,N/A,,Mostly Cloudy,260,2013-01-16 15:55:00
10:15 AM,34.3,31.5,89,29.81,10.0,West,12.7,17.3,N/A,,Scattered Clouds,260,2013-01-16 16:15:00
10:35 AM,34.5,31.1,87,29.82,10.0,West,15.0,19.6,N/A,,Mostly Cloudy,260,2013-01-16 16:35:00
10:55 AM,34.2,31.5,90,29.82,10.0,West,12.7,19.6,N/A,,Overcast,260,2013-01-16 16:55:00
11:15 AM,34.7,31.5,88,29.82,10.0,West,13.8,-,N/A,,Overcast,260,2013-01-16 17:15:00
11:35 AM,35.4,31.8,87,29.82,10.0,West,11.5,-,N/A,,Overcast,260,2013-01-16 17:35:00
11:55 AM,36.5,32.0,84,29.81,10.0,West,13.8,17.3,N/A,,Overcast,270,2013-01-16 17:55:00
12:15 PM,36.1,32.0,85,29.81,10.0,West,13.8,-,N/A,,Overcast,270,2013-01-16 18:15:00
12:35 PM,37.8,32.0,80,29.81,10.0,West,17.3,-,N/A,,Overcast,270,2013-01-16 18:35:00
1:15 PM,37.6,32.0,80,29.82,10.0,West,19.6,25.3,N/A,,Overcast,270,2013-01-16 19:15:00
1:35 PM,37.4,32.0,81,29.82,10.0,West,16.1,-,N/A,,Overcast,280,2013-01-16 19:35:00
2:15 PM,37.0,31.6,81,29.85,10.0,NNW,20.7,26.5,N/A,,Overcast,340,2013-01-16 20:15:00
2:35 PM,31.1,30.2,96,29.88,2.5,NNW,18.4,25.3,N/A,,Overcast,340,2013-01-16 20:35:00
2:55 PM,28.9,28.6,99,29.90,4.0,North,17.3,24.2,N/A,,Overcast,350,2013-01-16 20:55:00
3:15 PM,27.3,26.6,97,29.93,5.0,NNW,18.4,-,N/A,,Overcast,340,2013-01-16 21:15:00
3:34 PM,25.3,23.7,94,29.95,10.0,NNW,18.4,26.5,N/A,,Overcast,340,2013-01-16 21:34:00
3:56 PM,25.0,23.0,92,29.98,10.0,NNW,19.6,25.3,N/A,,Overcast,330,2013-01-16 21:56:00
4:35 PM,22.5,19.6,89,30.02,10.0,NNW,15.0,21.9,N/A,,Overcast,330,2013-01-16 22:35:00
4:55 PM,22.1,19.0,88,30.03,10.0,NNW,13.8,18.4,N/A,,Overcast,340,2013-01-16 22:55:00
5:15 PM,21.2,17.8,87,30.05,10.0,NNW,13.8,17.3,N/A,,Overcast,330,2013-01-16 23:15:00
5:35 PM,20.7,16.7,85,30.06,10.0,NNW,16.1,21.9,N/A,,Mostly Cloudy,330,2013-01-16 23:35:00
5:55 PM,19.0,15.6,87,30.07,10.0,NNW,15.0,-,N/A,,Scattered Clouds,330,2013-01-16 23:55:00
6:15 PM,17.4,11.8,79,30.07,10.0,NNW,17.3,25.3,N/A,,Clear,330,2013-01-17 00:15:00
6:35 PM,16.3,9.7,75,30.10,10.0,NNW,16.1,20.7,N/A,,Clear,330,2013-01-17 00:35:00
6:55 PM,14.9,4.5,63,30.13,10.0,NNW,15.0,21.9,N/A,,Clear,330,2013-01-17 00:55:00
7:15 PM,14.0,4.3,65,30.15,10.0,NNW,12.7,18.4,N/A,,Clear,330,2013-01-17 01:15:00
7:35 PM,13.1,2.1,62,30.15,10.0,NNW,11.5,18.4,N/A,,Clear,330,2013-01-17 01:35:00
7:54 PM,12.2,2.1,64,30.15,10.0,NNW,12.7,-,N/A,,Clear,330,2013-01-17 01:54:00
8:15 PM,10.4,0.7,65,30.17,10.0,NNW,9.2,-,N/A,,Clear,330,2013-01-17 02:15:00
8:35 PM,10.2,-0.0,63,30.18,10.0,NNW,12.7,18.4,N/A,,Clear,330,2013-01-17 02:35:00
8:55 PM,9.3,-1.8,61,30.19,10.0,NNW,12.7,17.3,N/A,,Clear,330,2013-01-17 02:55:00
9:15 PM,8.8,-4.0,56,30.19,10.0,NNW,10.4,-,N/A,,Clear,330,2013-01-17 03:15:00
9:35 PM,9.0,-3.8,56,30.20,10.0,NNW,10.4,-,N/A,,Clear,330,2013-01-17 03:35:00
9:55 PM,9.0,-1.7,62,30.20,10.0,NW,10.4,-,N/A,,Clear,320,2013-01-17 03:55:00
10:15 PM,8.6,0.1,68,30.21,10.0,NW,11.5,-,N/A,,Clear,320,2013-01-17 04:15:00
10:35 PM,8.6,-1.3,64,30.21,10.0,NNW,10.4,-,N/A,,Clear,330,2013-01-17 04:35:00
10:55 PM,8.2,-1.5,65,30.22,10.0,NNW,9.2,-,N/A,,Clear,330,2013-01-17 04:55:00
11:15 PM,7.7,-1.5,66,30.23,10.0,NNW,8.1,-,N/A,,Clear,330,2013-01-17 05:15:00
11:35 PM,7.2,-3.3,62,30.25,10.0,NNW,9.2,-,N/A,,Clear,330,2013-01-17 05:35:00
11:55 PM,6.8,-3.1,64,30.25,10.0,NNW,10.4,-,N/A,,Clear,330,2013-01-17 05:55:00